1486404001.06,11189,11.63,72806.3,-6.45,-19.81,-17.97,0,*5E
1486404002.34,11190,11.63,72808.3,-6.45,-19.81,-17.97,0,*56
1486404003.61,11191,11.63,72808.3,-6.45,-19.81,-17.97,0,*57
1486404004.85,11192,11.63,72810.8,-6.45,-19.71,-17.87,0,*5A
1486404006.13,11193,11.63,72808.3,-6.45,-19.81,-17.97,0,*55
1486404007.41,11194,11.63,72808.0,-6.45,-19.85,-17.97,0,*56
1486404008.66,11195,11.63,72808.0,-6.47,-19.81,-17.97,0,*51
1486404009.88,11196,11.63,72814.0,-6.47,-19.71,-17.83,0,*58
1486404011.14,11197,11.63,72808.8,-6.45,-19.65,-17.73,0,*51
1486404012.38,11198,11.63,72808.5,-6.45,-19.71,-17.83,0,*54
1486404013.61,11199,11.63,72812.8,-6.45,-19.71,-17.73,0,*5A
1486404014.85,11200,11.63,72808.3,-6.45,-19.71,-17.83,0,*56
1486404016.06,11201,11.63,72808.3,-6.47,-19.71,-17.73,0,*5A
1486404017.27,11202,11.63,72814.5,-6.47,-19.71,-17.73,0,*59
1486404018.49,11203,11.63,72808.3,-6.47,-19.81,-17.73,0,*57
1486404019.71,11204,11.63,72808.5,-6.47,-19.81,-17.73,0,*50
1486404020.95,11205,11.63,72806.3,-6.47,-19.65,-17.69,0,*50
1486404022.16,11206,11.63,72808.8,-6.47,-19.71,-17.69,0,*56
1486404023.38,11207,11.63,72810.3,-6.47,-19.81,-17.73,0,*53
1486404024.62,11208,11.63,72808.8,-6.47,-19.85,-17.83,0,*57
1486404025.84,11209,11.63,72810.5,-6.47,-19.85,-17.73,0,*59
1486404027.07,11210,11.63,72810.5,-6.47,-19.81,-17.73,0,*55
1486404028.29,11211,11.63,72810.5,-6.47,-19.81,-17.69,0,*5F
1486404029.54,11212,11.63,72810.0,-6.45,-19.81,-17.69,0,*5E
1486404030.79,11213,11.63,72810.5,-6.45,-19.81,-17.69,0,*5F
1486404032.03,11214,11.63,72808.8,-6.45,-19.81,-17.69,0,*58
1486404033.29,11215,11.63,72808.5,-6.47,-19.85,-17.59,0,*5C
1486404034.52,11216,11.63,72808.3,-6.47,-19.81,-17.69,0,*58
1486404035.77,11217,11.63,72810.0,-6.47,-19.81,-17.59,0,*5A
1486404037.02,11218,11.63,72810.3,-6.47,-19.85,-17.59,0,*51
1486404038.3,11219,11.63,72810.0,-6.45,-19.85,-17.59,0,*52
1486404039.58,11220,11.63,72806.3,-6.45,-19.81,-17.59,0,*5C
1486404040.81,11221,11.63,72806.5,-6.47,-19.71,-17.55,0,*5C
1486404042.07,11222,11.63,72806.3,-6.45,-19.71,-17.55,0,*5D
1486404043.31,11223,11.63,72810.8,-6.47,-19.71,-17.45,0,*5F
1486404044.55,11224,11.63,72810.8,-6.47,-19.71,-17.45,0,*58
1486404045.8,11225,11.63,72808.0,-6.47,-19.85,-17.55,0,*53
1486404047.05,11226,11.63,72806.5,-6.47,-19.81,-17.55,0,*54
1486404048.3,11227,11.63,72806.0,-6.47,-19.81,-17.55,0,*55
1486404049.54,11228,11.63,72810.3,-6.47,-19.71,-17.55,0,*55
1486404050.81,11229,11.63,72810.8,-6.45,-19.81,-17.55,0,*59
1486404052.08,11230,11.63,72808.0,-6.45,-19.81,-17.45,0,*50
1486404053.34,11231,11.63,72808.5,-6.45,-19.71,-17.41,0,*5A
1486404054.6,11232,11.63,72808.3,-6.45,-19.71,-17.41,0,*59
1486404055.86,11233,11.63,72810.8,-6.45,-19.71,-17.41,0,*58
1486404057.14,11234,11.63,72808.0,-6.45,-19.81,-17.41,0,*50
1486404058.41,11235,11.63,72810.0,-6.45,-19.81,-17.41,0,*51
1486404059.68,11236,11.63,72808.0,-6.45,-19.81,-17.41,0,*52
1486404060.96,11237,11.63,72812.3,-6.45,-19.81,-17.41,0,*53
1486404062.2,11238,11.63,72810.5,-6.45,-19.81,-17.31,0,*5B
1486404063.48,11239,11.63,72812.0,-6.45,-19.85,-17.41,0,*59
1486404064.71,11240,11.63,72808.0,-6.45,-19.71,-17.31,0,*5B
1486404065.99,11241,11.63,72808.8,-6.45,-19.81,-17.41,0,*52
1486404067.23,11242,11.63,72808.0,-6.45,-19.81,-17.31,0,*56
1486404068.49,11243,11.63,72806.3,-6.45,-19.71,-17.21,0,*59
1486404069.75,11244,11.63,72804.8,-6.45,-19.71,-17.11,0,*5D
1486404071.0,11245,11.63,72810.3,-6.43,-19.81,-17.21,0,*56
1486404072.27,11246,11.63,72810.8,-6.45,-19.81,-17.21,0,*53
1486404073.53,11247,11.63,72810.3,-6.43,-19.65,-17.11,0,*5D
1486404074.79,11248,11.63,72810.0,-6.43,-19.65,-17.11,0,*52
1486404076.07,11249,11.63,72808.0,-6.45,-19.81,-17.07,0,*58
1486404077.33,11250,11.63,72808.0,-6.45,-19.71,-17.11,0,*58
1486404078.59,11251,11.63,72810.3,-6.45,-19.71,-17.11,0,*59
1486404079.86,11252,11.63,72810.0,-6.45,-19.81,-17.11,0,*55
1486404081.1,11253,11.63,72808.8,-6.43,-19.71,-17.11,0,*5D
1486404082.31,11254,11.63,72808.8,-6.43,-19.71,-16.97,0,*55
1486404083.58,11255,11.56,72806.8,-6.45,-19.71,-17.07,0,*5A
1486404084.81,11256,11.63,72808.8,-6.45,-19.71,-16.97,0,*51
1486404086.09,11257,11.63,72810.5,-6.45,-19.81,-17.07,0,*57
1486404087.34,11258,11.63,72808.3,-6.43,-19.81,-17.11,0,*59
1486404088.59,11259,11.63,72808.8,-6.43,-19.85,-17.21,0,*5F
1486404089.85,11260,11.63,72806.3,-6.43,-19.85,-17.11,0,*56
1486404091.11,11261,11.63,72808.3,-6.45,-19.95,-17.11,0,*50
1486404092.36,11262,11.63,72804.5,-6.43,-19.85,-17.11,0,*54
1486404093.59,11263,11.63,72808.8,-6.43,-19.95,-17.21,0,*57
1486404094.85,11264,11.63,72810.8,-6.45,-19.95,-17.11,0,*55
1486404096.09,11265,11.63,72808.0,-6.43,-19.95,-17.11,0,*52
1486404097.33,11266,11.63,72810.3,-6.43,-19.95,-17.07,0,*56
1486404098.56,11267,11.63,72808.0,-6.43,-19.95,-17.11,0,*50
1486404099.83,11268,11.63,72808.8,-6.45,-19.95,-17.07,0,*5E
1486404101.07,11269,11.63,72808.0,-6.43,-19.95,-17.07,0,*59
1486404102.34,11270,11.63,72804.5,-6.45,-19.95,-17.07,0,*57
1486404103.63,11271,11.63,72808.0,-6.45,-19.85,-17.07,0,*57
1486404104.86,11272,11.63,72806.5,-6.45,-19.71,-16.93,0,*53
1486404106.1,11273,11.63,72812.8,-6.45,-19.85,-16.93,0,*59
1486404107.35,11274,11.63,72810.0,-6.45,-19.81,-16.93,0,*5A
1486404108.57,11275,11.63,72810.5,-6.43,-19.85,-16.93,0,*59
1486404109.79,11276,11.63,72808.8,-6.43,-19.81,-16.93,0,*5E
1486404111.04,11277,11.63,72808.3,-6.45,-19.81,-16.83,0,*58
1486404112.28,11278,11.63,72808.5,-6.45,-19.81,-16.93,0,*56
1486404113.5,11279,11.63,72808.8,-6.43,-19.81,-16.83,0,*50
1486404114.76,11280,11.63,72814.0,-6.45,-19.85,-16.83,0,*54
1486404115.97,11281,11.63,72808.8,-6.43,-19.71,-16.83,0,*58
1486404117.22,11282,11.63,72810.0,-6.41,-19.81,-16.79,0,*53
1486404118.47,11283,11.63,72808.5,-6.45,-19.81,-16.79,0,*56
1486404119.69,11284,11.63,72808.0,-6.43,-19.81,-16.79,0,*57
1486404120.94,11285,11.63,72810.0,-6.45,-19.81,-16.79,0,*50
1486404122.21,11286,11.63,72812.8,-6.45,-19.81,-16.69,0,*52
1486404123.48,11287,11.63,72810.3,-6.45,-19.81,-16.69,0,*53
1486404124.74,11288,11.63,72810.5,-6.43,-19.85,-16.69,0,*5E
1486404125.99,11289,11.63,72810.5,-6.45,-19.81,-16.79,0,*5C
1486404127.21,11290,11.63,72812.5,-6.43,-19.81,-16.83,0,*57
1486404128.45,11291,11.63,72806.8,-6.43,-19.81,-16.69,0,*52
1486404129.71,11292,11.63,72812.8,-6.43,-19.85,-16.69,0,*55
1486404130.92,11293,11.63,72810.0,-6.43,-19.95,-16.79,0,*54
1486404132.13,11294,11.63,72808.5,-6.43,-19.95,-16.79,0,*53
1486404133.36,11295,11.63,72814.0,-6.43,-19.85,-16.79,0,*53
1486404134.61,11296,11.63,72806.8,-6.41,-19.75,-16.65,0,*50
1486404135.88,11297,11.63,72806.8,-6.45,-19.81,-16.69,0,*52
1486404137.13,11298,11.63,72808.0,-6.43,-19.81,-16.65,0,*57
1486404138.38,11299,11.63,72810.3,-6.43,-19.81,-16.69,0,*5A
1486404139.62,11300,11.63,72808.0,-6.43,-19.81,-16.69,0,*5B
1486404140.89,11301,11.63,72810.0,-6.41,-19.81,-16.65,0,*54
1486404142.17,11302,11.63,72810.0,-6.41,-19.81,-16.65,0,*57
1486404143.42,11303,11.63,72808.0,-6.43,-19.85,-16.65,0,*50
1486404144.67,11304,11.63,72808.0,-6.43,-19.81,-16.65,0,*53
1486404145.92,11305,11.63,72810.5,-6.43,-19.85,-16.65,0,*56
1486404147.16,11306,11.63,72812.0,-6.43,-19.81,-16.65,0,*51
1486404148.41,11307,11.63,72808.5,-6.43,-19.85,-16.65,0,*54
1486404149.67,11308,11.63,72810.8,-6.43,-19.85,-16.65,0,*5B
1486404150.9,11309,11.63,72806.0,-6.43,-19.95,-16.65,0,*5B
1486404152.16,11310,11.63,72810.8,-6.41,-19.95,-16.65,0,*51
1486404153.39,11311,11.63,72808.8,-6.43,-19.95,-16.69,0,*5E
1486404154.65,11312,11.63,72808.0,-6.45,-19.95,-16.69,0,*5B
1486404155.88,11313,11.63,72810.3,-6.43,-19.99,-16.69,0,*50
1486404157.14,11314,11.63,72812.0,-6.41,-19.91,-16.65,0,*51
1486404158.37,11315,11.63,72806.5,-6.43,-19.95,-16.69,0,*5A
1486404159.63,11316,11.63,72808.8,-6.41,-19.95,-16.65,0,*57
1486404160.87,11317,11.63,72808.5,-6.43,-19.99,-16.69,0,*54
1486404162.1,11318,11.63,72810.0,-6.43,-19.99,-16.65,0,*57
1486404163.36,11319,11.63,72808.0,-6.45,-19.95,-16.65,0,*5C
1486404164.61,11320,11.63,72810.5,-6.45,-19.99,-16.65,0,*5A
1486404165.85,11321,11.63,72808.3,-6.43,-19.99,-16.65,0,*5D
1486404167.08,11322,11.63,72808.5,-6.43,-19.99,-16.65,0,*5E
1486404168.31,11323,11.63,72808.3,-6.45,-19.95,-16.55,0,*56
1486404169.55,11324,11.63,72808.8,-6.45,-19.95,-16.55,0,*51
1486404170.81,11325,11.63,72810.8,-6.45,-19.95,-16.65,0,*53
1486404172.02,11326,11.63,72810.0,-6.43,-19.95,-16.55,0,*55
1486404173.25,11327,11.63,72810.0,-6.43,-19.95,-16.65,0,*57
1486404174.49,11328,11.63,72808.8,-6.45,-19.99,-16.55,0,*51
1486404175.72,11329,11.63,72808.3,-6.45,-19.95,-16.55,0,*5C
1486404176.96,11330,11.63,72810.0,-6.45,-19.95,-16.55,0,*54
1486404178.21,11331,11.63,72806.3,-6.45,-19.85,-16.55,0,*54
1486404179.44,11332,11.63,72806.5,-6.43,-19.85,-16.55,0,*51
1486404180.68,11333,11.63,72810.3,-6.45,-19.95,-16.55,0,*57
1486404181.93,11334,11.63,72808.5,-6.45,-19.85,-16.41,0,*54
1486404183.2,11335,11.63,72808.5,-6.45,-19.81,-16.27,0,*51
1486404184.45,11336,11.63,72808.8,-6.45,-19.81,-16.37,0,*53
1486404185.7,11337,11.63,72810.0,-6.45,-19.85,-16.41,0,*57
1486404186.96,11338,11.63,72810.5,-6.45,-19.85,-16.41,0,*58
1486404188.18,11339,11.63,72810.0,-6.47,-19.81,-16.41,0,*5F
1486404189.39,11340,11.63,72808.3,-6.47,-19.75,-16.41,0,*5A
1486404190.62,11341,11.63,72808.3,-6.43,-19.85,-16.41,0,*50
1486404191.85,11342,11.63,72806.8,-6.45,-19.95,-16.41,0,*54
1486404193.1,11343,11.63,72806.8,-6.45,-19.85,-16.37,0,*55
1486404194.33,11344,11.63,72808.8,-6.47,-19.81,-16.37,0,*54
1486404195.58,11345,11.63,72808.8,-6.47,-19.81,-16.27,0,*54
1486404196.81,11346,11.63,72812.8,-6.47,-19.71,-16.23,0,*5C
1486404198.05,11347,11.63,72808.5,-6.47,-19.71,-16.23,0,*5D
1486404199.28,11348,11.63,72810.3,-6.47,-19.71,-16.23,0,*52
1486404200.52,11349,11.63,72808.5,-6.47,-19.71,-16.23,0,*53
1486404201.75,11350,11.63,72810.5,-6.47,-19.71,-16.23,0,*5B
1486404202.99,11351,11.63,72810.8,-6.47,-19.71,-16.27,0,*5E
1486404204.25,11352,11.63,72806.0,-6.47,-19.65,-16.17,0,*5B
1486404205.55,11353,11.63,72808.0,-6.45,-19.57,-16.17,0,*59
1486404206.83,11354,11.63,72808.3,-6.45,-19.57,-16.23,0,*59
1486404208.12,11355,11.63,72806.0,-6.45,-19.57,-16.09,0,*50
1486404209.41,11356,11.63,72808.8,-6.45,-19.65,-16.09,0,*52
1486404210.65,11357,11.63,72810.3,-6.45,-19.51,-16.03,0,*5E
1486404211.94,11358,11.63,72810.3,-6.45,-19.57,-16.09,0,*5D
1486404213.23,11359,11.63,72808.3,-6.45,-19.57,-16.09,0,*5C
1486404214.5,11360,11.63,72808.0,-6.45,-19.51,-16.17,0,*5F
1486404215.76,11361,11.63,72810.5,-6.45,-19.57,-16.03,0,*5D
1486404217.02,11362,11.63,72810.3,-6.45,-19.57,-16.03,0,*5E
1486404218.31,11363,11.63,72810.5,-6.45,-19.57,-16.17,0,*5A
1486404219.6,11364,11.63,72810.5,-6.45,-19.57,-16.17,0,*5D
1486404220.89,11365,11.63,72808.3,-6.45,-19.57,-16.09,0,*53
1486404222.13,11366,11.63,72812.0,-6.45,-19.37,-15.95,0,*50
1486404223.4,11367,11.63,72808.5,-6.45,-19.37,-15.89,0,*5C
1486404224.66,11368,11.63,72810.5,-6.45,-19.41,-15.95,0,*5F
1486404225.89,11369,11.63,72808.0,-6.45,-19.37,-16.03,0,*53
1486404227.17,11370,11.63,72810.0,-6.45,-19.41,-15.89,0,*5B
1486404228.46,11371,11.63,72810.0,-6.45,-19.41,-16.09,0,*51
1486404229.75,11372,11.63,72810.3,-6.45,-19.57,-16.09,0,*55
1486404231.04,11373,11.63,72808.3,-6.45,-19.57,-16.09,0,*54
1486404232.31,11374,11.63,72808.0,-6.45,-19.57,-16.03,0,*59
1486404233.54,11375,11.63,72810.0,-6.45,-19.51,-16.03,0,*5E
1486404234.8,11376,11.63,72808.3,-6.45,-19.51,-16.09,0,*57
1486404236.1,11377,11.63,72810.0,-6.45,-19.57,-16.09,0,*50
1486404237.34,11378,11.63,72810.5,-6.43,-19.51,-16.09,0,*5F
1486404238.6,11379,11.63,72808.5,-6.43,-19.57,-16.09,0,*58
1486404239.89,11380,11.63,72810.3,-6.45,-19.57,-16.17,0,*57
1486404241.16,11381,11.63,72810.3,-6.45,-19.57,-16.03,0,*53
1486404242.41,11382,11.63,72814.0,-6.45,-19.51,-16.23,0,*54
1486404243.68,11383,11.63,72808.8,-6.45,-19.51,-16.17,0,*52
1486404244.94,11384,11.63,72812.3,-6.45,-19.51,-16.17,0,*55
1486404246.23,11385,11.63,72810.0,-6.45,-19.57,-16.17,0,*52
1486404247.47,11386,11.63,72810.0,-6.45,-19.51,-16.03,0,*52
1486404248.72,11387,11.56,72806.5,-6.45,-19.41,-16.03,0,*52
1486404249.96,11388,11.63,72808.0,-6.45,-19.51,-16.03,0,*5C
1486404251.17,11389,11.63,72810.3,-6.43,-19.37,-16.03,0,*5B
1486404252.42,11390,11.63,72808.3,-6.45,-19.41,-16.03,0,*54
1486404253.66,11391,11.63,72808.8,-6.43,-19.51,-16.09,0,*58
1486404254.93,11392,11.63,72810.0,-6.45,-19.37,-16.09,0,*5D
1486404256.17,11393,11.63,72808.5,-6.43,-19.37,-16.09,0,*5A
1486404257.41,11394,11.63,72806.3,-6.45,-19.37,-16.03,0,*51
1486404258.68,11395,11.63,72808.3,-6.45,-19.37,-16.09,0,*5A
1486404259.89,11396,11.63,72810.0,-6.47,-19.37,-16.03,0,*51
1486404261.12,11397,11.63,72806.8,-6.47,-19.41,-16.03,0,*51
1486404262.36,11398,11.63,72808.5,-6.47,-19.37,-16.09,0,*55
1486404263.63,11399,11.63,72810.0,-6.47,-19.41,-16.09,0,*55
1486404264.89,11400,11.63,72808.3,-6.51,-19.31,-16.09,0,*52
1486404266.16,11401,11.63,72810.8,-6.47,-19.23,-15.89,0,*5C
1486404267.4,11402,11.63,72808.8,-6.47,-19.23,-15.95,0,*52
1486404268.66,11403,11.63,72810.8,-6.47,-19.23,-16.09,0,*55
1486404269.91,11404,11.63,72806.8,-6.47,-19.27,-16.03,0,*5C
1486404271.12,11405,11.63,72808.8,-6.47,-19.37,-16.03,0,*5C
1486404272.36,11406,11.63,72810.5,-6.47,-19.27,-16.03,0,*5E
1486404273.64,11407,11.56,72806.0,-6.47,-19.27,-16.09,0,*55
1486404274.91,11408,11.63,72808.8,-6.47,-19.27,-16.09,0,*5A
1486404276.15,11409,11.63,72808.0,-6.47,-19.23,-16.03,0,*55
1486404277.39,11410,11.63,72808.8,-6.47,-19.27,-16.03,0,*59
1486404278.66,11411,11.63,72808.8,-6.45,-19.27,-16.03,0,*5A
1486404279.93,11412,11.63,72810.5,-6.51,-19.27,-16.09,0,*56
1486404281.21,11413,11.63,72806.5,-6.51,-19.27,-16.09,0,*57
1486404282.45,11414,11.63,72808.0,-6.47,-19.23,-15.95,0,*55
1486404283.69,11415,11.63,72808.3,-6.47,-19.23,-15.95,0,*54
1486404284.91,11416,11.63,72808.0,-6.47,-19.17,-15.95,0,*50
1486404286.14,11417,11.63,72806.8,-6.51,-19.23,-15.99,0,*5D
1486404287.36,11418,11.63,72808.0,-6.47,-19.17,-16.03,0,*52
1486404288.57,11419,11.63,72808.0,-6.47,-19.17,-16.03,0,*53
1486404289.84,11420,11.63,72810.8,-6.47,-19.23,-16.09,0,*54
1486404291.1,11421,11.63,72808.3,-6.51,-19.23,-16.13,0,*59
1486404292.32,11422,11.63,72808.0,-6.47,-19.17,-15.95,0,*57
1486404293.53,11423,11.63,72808.8,-6.47,-19.17,-16.03,0,*5A
1486404294.77,11424,11.63,72806.3,-6.47,-19.17,-16.09,0,*57
1486404296.04,11425,11.63,72808.8,-6.51,-19.23,-16.09,0,*56
1486404297.31,11426,11.63,72808.5,-6.51,-19.23,-16.09,0,*55
1486404298.55,11427,11.63,72810.0,-6.51,-19.13,-16.09,0,*57
1486404299.8,11428,11.63,72806.8,-6.51,-19.13,-16.09,0,*58
1486404301.01,11429,11.63,72810.3,-6.47,-19.17,-16.03,0,*50
1486404302.25,11430,11.63,72810.8,-6.51,-19.07,-16.09,0,*54
1486404303.49,11431,11.63,72808.0,-6.51,-18.93,-15.99,0,*53
1486404304.7,11432,11.63,72808.0,-6.51,-19.07,-15.99,0,*5C
1486404305.91,11433,11.63,72810.5,-6.47,-19.07,-16.03,0,*5A
1486404307.14,11434,11.63,72808.3,-6.47,-19.03,-16.09,0,*53
1486404308.38,11435,11.63,72810.0,-6.51,-19.07,-16.09,0,*51
1486404309.59,11436,11.63,72810.5,-6.47,-19.03,-15.95,0,*57
1486404310.83,11437,11.63,72806.8,-6.51,-18.93,-15.99,0,*55
1486404312.07,11438,11.56,72804.5,-6.51,-18.99,-16.09,0,*5A
1486404313.31,11439,11.63,72808.3,-6.51,-19.07,-16.09,0,*5D
1486404314.55,11440,11.63,72808.8,-6.47,-18.99,-16.09,0,*52
1486404315.76,11441,11.63,72806.0,-6.47,-18.79,-15.95,0,*5B
1486404317.03,11442,11.63,72808.8,-6.51,-18.93,-16.13,0,*56
1486404318.29,11443,11.63,72808.0,-6.47,-18.93,-16.09,0,*5B
1486404319.53,11444,11.63,72808.3,-6.51,-18.99,-16.13,0,*5A
1486404320.76,11445,11.63,72810.0,-6.51,-19.07,-16.13,0,*5D
1486404322.0,11446,11.63,72808.8,-6.51,-19.07,-16.13,0,*5E
1486404323.24,11447,11.63,72808.5,-6.51,-18.99,-16.13,0,*59
1486404324.47,11448,11.63,72806.8,-6.51,-18.99,-16.13,0,*56
1486404325.73,11449,11.63,72806.8,-6.51,-18.89,-16.13,0,*56
1486404327.0,11450,11.63,72804.8,-6.47,-18.93,-16.09,0,*59
1486404328.23,11451,11.63,72808.5,-6.51,-18.99,-16.27,0,*59
1486404329.5,11452,11.63,72806.0,-6.47,-18.93,-16.17,0,*54
1486404330.74,11453,11.63,72810.0,-6.47,-18.79,-16.17,0,*51
1486404332.0,11454,11.63,72810.5,-6.51,-18.93,-16.23,0,*52
1486404333.26,11455,11.63,72808.3,-6.51,-18.93,-16.27,0,*57
1486404334.52,11456,11.63,72808.8,-6.51,-18.93,-16.23,0,*50
1486404335.78,11457,11.63,72810.5,-6.51,-18.93,-16.27,0,*55
1486404337.04,11458,11.63,72806.5,-6.51,-18.93,-16.27,0,*5A
1486404338.28,11459,11.63,72808.0,-6.51,-18.83,-16.27,0,*5A
1486404339.51,11460,11.63,72808.5,-6.51,-18.83,-16.27,0,*50
1486404340.74,11461,11.63,72806.0,-6.51,-18.83,-16.27,0,*51
1486404341.98,11462,11.63,72808.3,-6.51,-18.83,-16.27,0,*52
1486404343.21,11463,11.56,72804.0,-6.51,-18.83,-16.27,0,*53
1486404344.49,11464,11.63,72806.8,-6.53,-18.89,-16.31,0,*5B
1486404345.75,11465,11.63,72806.5,-6.53,-18.99,-16.31,0,*5B
1486404347.03,11466,11.56,72806.3,-6.53,-18.89,-16.27,0,*5E
1486404348.3,11467,11.56,72804.5,-6.53,-18.89,-16.31,0,*58
1486404349.55,11468,11.63,72812.0,-6.53,-18.89,-16.45,0,*54
1486404350.8,11469,11.63,72810.0,-6.53,-18.89,-16.45,0,*55
1486404352.03,11470,11.63,72808.3,-6.53,-18.99,-16.37,0,*59
1486404353.28,11471,11.63,72810.3,-6.53,-18.89,-16.37,0,*59
1486404354.53,11472,11.63,72810.0,-6.53,-18.89,-16.45,0,*5F
1486404355.78,11473,11.63,72806.5,-6.53,-18.89,-16.37,0,*5B
1486404357.05,11474,11.63,72806.5,-6.53,-18.89,-16.51,0,*5C
1486404358.28,11475,11.63,72808.0,-6.53,-18.83,-16.45,0,*52
1486404359.53,11476,11.63,72806.3,-6.53,-18.89,-16.45,0,*5B
1486404360.76,11477,11.63,72808.8,-6.53,-18.83,-16.37,0,*55
1486404361.99,11478,11.63,72804.0,-6.53,-18.83,-16.37,0,*5A
1486404363.2,11479,11.63,72804.8,-6.55,-18.83,-16.45,0,*58
1486404364.43,11480,11.56,72806.5,-6.55,-18.83,-16.51,0,*5B
1486404365.68,11481,11.63,72804.8,-6.53,-18.89,-16.45,0,*53
1486404366.94,11482,11.63,72808.5,-6.53,-18.83,-16.51,0,*5F
1486404368.21,11483,11.63,72806.5,-6.53,-18.89,-16.51,0,*54
1486404369.47,11484,11.63,72810.3,-6.53,-18.83,-16.51,0,*59
1486404370.7,11485,11.63,72808.5,-6.55,-18.83,-16.51,0,*5E
1486404371.94,11486,11.63,72806.8,-6.53,-18.73,-16.59,0,*5C
1486404373.16,11487,11.63,72804.0,-6.55,-18.83,-16.59,0,*54
1486404374.39,11488,11.63,72806.3,-6.55,-18.69,-16.65,0,*50
1486404375.61,11489,11.63,72804.3,-6.55,-18.83,-16.59,0,*5A
1486404376.83,11490,11.63,72804.8,-6.55,-18.73,-16.59,0,*5D
1486404378.07,11491,11.63,72804.0,-6.53,-18.83,-16.59,0,*55
1486404379.3,11492,11.63,72804.8,-6.55,-18.83,-16.51,0,*58
1486404380.54,11493,11.63,72808.0,-6.53,-18.83,-16.59,0,*57
1486404381.78,11494,11.63,72804.0,-6.55,-18.73,-16.65,0,*56
1486404383.03,11495,11.63,72806.0,-6.53,-18.83,-16.65,0,*5E
1486404384.25,11496,11.63,72806.0,-6.55,-18.83,-16.75,0,*5A
1486404385.47,11497,11.63,72806.0,-6.55,-18.83,-16.75,0,*5B
1486404386.71,11498,11.63,72806.3,-6.55,-18.83,-16.65,0,*55
1486404387.94,11499,11.63,72806.3,-6.55,-18.83,-16.65,0,*54
1486404389.18,11500,11.63,72808.0,-6.55,-18.83,-16.65,0,*55
1486404390.4,11501,11.63,72810.5,-6.55,-18.73,-16.75,0,*5A
1486404391.66,11502,11.63,72804.0,-6.57,-18.89,-16.79,0,*52
1486404392.9,11503,11.56,72806.5,-6.55,-18.83,-16.65,0,*56
1486404394.12,11504,11.63,72804.8,-6.55,-18.83,-16.75,0,*50
1486404395.33,11505,11.63,72806.3,-6.55,-18.83,-16.75,0,*51
1486404396.55,11506,11.63,72810.3,-6.55,-18.83,-16.75,0,*52
1486404397.77,11507,11.63,72808.0,-6.55,-18.83,-16.75,0,*53
1486404398.99,11508,11.63,72808.8,-6.55,-18.83,-16.75,0,*5C
1486404400.25,11509,11.63,72804.8,-6.57,-18.89,-16.83,0,*5C
1486404401.46,11510,11.63,72806.5,-6.55,-18.73,-16.79,0,*56
1486404402.68,11511,11.63,72806.8,-6.55,-18.73,-16.79,0,*57
1486404403.94,11512,11.63,72808.8,-6.57,-18.89,-16.83,0,*56
1486404405.2,11513,11.63,72804.5,-6.57,-18.93,-16.83,0,*5C
1486404406.46,11514,11.63,72810.3,-6.57,-18.89,-16.93,0,*51
1486404407.73,11515,11.63,72808.3,-6.57,-18.93,-16.83,0,*5A
1486404408.96,11516,11.63,72808.0,-6.57,-19.03,-16.93,0,*50
1486404410.17,11517,11.63,72806.5,-6.59,-19.03,-16.93,0,*5F
1486404411.37,11518,11.63,72806.5,-6.59,-19.03,-16.93,0,*50
1486404412.62,11519,11.63,72808.8,-6.59,-19.03,-17.07,0,*5D
1486404413.89,11520,11.63,72806.3,-6.57,-19.03,-17.07,0,*59
1486404415.12,11521,11.63,72804.3,-6.57,-19.03,-16.97,0,*50
1486404416.37,11522,11.63,72806.3,-6.59,-19.03,-17.07,0,*55
1486404417.63,11523,11.63,72806.3,-6.57,-18.93,-16.97,0,*5A
1486404418.93,11524,11.63,72808.3,-6.57,-18.93,-17.07,0,*55
1486404420.18,11525,11.63,72806.5,-6.59,-19.03,-17.07,0,*52
1486404421.44,11526,11.63,72808.8,-6.59,-18.93,-17.11,0,*5E
1486404422.69,11527,11.63,72804.5,-6.59,-19.03,-17.07,0,*50
1486404423.95,11528,11.63,72808.3,-6.57,-19.03,-17.21,0,*55
1486404425.21,11529,11.63,72806.3,-6.57,-19.03,-17.11,0,*57
1486404426.48,11530,11.63,72804.0,-6.59,-18.93,-17.11,0,*59
1486404427.75,11531,11.56,72804.8,-6.59,-18.93,-17.11,0,*58
1486404429.01,11532,11.63,72804.3,-6.57,-19.03,-17.11,0,*5D
1486404430.25,11533,11.63,72808.3,-6.59,-19.03,-17.21,0,*51
1486404431.49,11534,11.63,72808.5,-6.59,-19.07,-17.11,0,*51
1486404432.72,11535,11.63,72804.8,-6.59,-19.07,-17.11,0,*50
1486404433.96,11536,11.63,72804.8,-6.59,-19.07,-17.21,0,*50
1486404435.18,11537,11.63,72810.5,-6.61,-19.13,-17.31,0,*5E
1486404436.42,11538,11.63,72806.8,-6.61,-19.13,-17.41,0,*56
1486404437.65,11539,11.63,72810.8,-6.59,-19.07,-17.21,0,*5F
1486404438.89,11540,11.63,72804.8,-6.59,-19.07,-17.25,0,*55
1486404440.15,11541,11.63,72808.0,-6.61,-19.23,-17.41,0,*5B
1486404441.41,11542,11.63,72806.0,-6.61,-19.23,-17.25,0,*5A
1486404442.62,11543,11.63,72810.0,-6.61,-19.13,-17.31,0,*5D
1486404443.85,11544,11.63,72806.5,-6.61,-19.23,-17.31,0,*59
1486404445.12,11545,11.63,72804.3,-6.61,-19.23,-17.41,0,*5F
1486404446.38,11546,11.63,72810.0,-6.61,-19.27,-17.41,0,*58
1486404447.65,11547,11.63,72808.5,-6.61,-19.27,-17.41,0,*59
1486404448.92,11548,11.63,72804.5,-6.63,-19.37,-17.41,0,*55
1486404450.19,11549,11.63,72808.5,-6.61,-19.27,-17.59,0,*5E
1486404451.45,11550,11.63,72810.3,-6.63,-19.27,-17.49,0,*55
1486404452.69,11551,11.63,72806.8,-6.63,-19.37,-17.49,0,*55
1486404453.99,11552,11.56,72804.0,-6.63,-19.27,-17.41,0,*5F
1486404455.26,11553,11.63,72808.0,-6.61,-19.27,-17.41,0,*5C
1486404456.53,11554,11.63,72808.5,-6.61,-19.27,-17.59,0,*52
1486404457.82,11555,11.63,72808.8,-6.63,-19.27,-17.59,0,*51
1486404459.09,11556,11.63,72810.0,-6.61,-19.27,-17.59,0,*50
1486404460.33,11557,11.63,72810.0,-6.63,-19.37,-17.49,0,*53
1486404461.59,11558,11.63,72806.8,-6.63,-19.37,-17.63,0,*54
1486404462.86,11559,11.63,72806.8,-6.63,-19.37,-17.59,0,*5C
1486404464.09,11560,11.63,72808.0,-6.63,-19.37,-17.49,0,*57
1486404465.36,11561,11.63,72806.5,-6.63,-19.37,-17.59,0,*57
1486404466.65,11562,11.63,72810.0,-6.63,-19.27,-17.63,0,*5C
1486404467.92,11563,11.63,72808.5,-6.63,-19.37,-17.63,0,*5C
1486404469.18,11564,11.63,72806.5,-6.63,-19.37,-17.63,0,*5B
1486404470.42,11565,11.63,72804.5,-6.63,-19.37,-17.73,0,*5B
1486404471.65,11566,11.63,72810.3,-6.63,-19.37,-17.73,0,*58
1486404472.92,11567,11.63,72810.8,-6.63,-19.37,-17.63,0,*58
1486404474.2,11568,11.63,72804.8,-6.63,-19.41,-17.63,0,*56
1486404475.43,11569,11.63,72806.0,-6.65,-19.47,-17.79,0,*5C
1486404476.67,11570,11.63,72806.5,-6.65,-19.47,-17.79,0,*54
1486404477.9,11571,11.63,72806.0,-6.67,-19.47,-17.69,0,*56
1486404479.14,11572,11.63,72804.0,-6.65,-19.47,-17.79,0,*56
1486404480.38,11573,11.63,72808.8,-6.67,-19.47,-17.69,0,*54
1486404481.64,11574,11.63,72806.5,-6.67,-19.47,-17.79,0,*52
1486404482.87,11575,11.63,72810.8,-6.65,-19.47,-17.79,0,*51
1486404484.13,11576,11.63,72808.5,-6.67,-19.47,-17.79,0,*50
1486404485.37,11577,11.63,72804.8,-6.65,-19.51,-17.79,0,*54
1486404486.61,11578,11.63,72806.5,-6.65,-19.47,-17.79,0,*5C
1486404487.87,11579,11.63,72804.8,-6.67,-19.47,-17.79,0,*5F
1486404489.13,11580,11.63,72806.5,-6.67,-19.51,-17.79,0,*5E
1486404490.38,11581,11.63,72808.8,-6.67,-19.51,-17.83,0,*5A
1486404491.6,11582,11.63,72808.5,-6.65,-19.51,-17.83,0,*5B
1486404492.83,11583,11.63,72806.3,-6.65,-19.51,-17.93,0,*5B
1486404494.08,11584,11.63,72804.8,-6.67,-19.51,-17.83,0,*5F
1486404495.34,11585,11.63,72808.8,-6.67,-19.51,-17.93,0,*5F
1486404496.61,11586,11.63,72808.0,-6.67,-19.61,-17.83,0,*5E
1486404497.87,11587,11.56,72806.8,-6.67,-19.51,-17.93,0,*5D
1486404499.12,11588,11.63,72808.8,-6.67,-19.51,-17.83,0,*53